Theta_e
327 319 313 313 311 308 305 299 295 292 295 294 294 294 295 299 301 304 303 307 310 315 321 323 324 321 316 313 314 319 326 314 314 307 303 318 340 339 340 342 344 345 345 346 345 346 348 350 351 351 350 350 350 351 350 351 352 352 352 353 353 353 353 353 353 353 353 353 353 353 353 353 353 353 352 352 351 351 351 351 351 350 349 349 349 348 347 348 347 346 345 343 343 343 344 344 344
321 314 312 311 308 304 300 300 292 289 292 290 292 295 295 297 298 299 299 305 311 319 327 328 329 330 330 329 329 328 322 328 330 325 331 338 340 340 342 343 344 343 345 344 345 346 347 349 351 351 349 350 350 350 350 351 352 352 352 353 353 353 353 353 353 353 353 353 353 353 353 353 352 352 352 352 351 351 350 350 350 350 350 349 348 348 348 347 347 347 346 344 343 344 344 344 344
321 313 311 308 303 301 301 296 294 290 288 289 293 295 299 297 296 297 300 305 318 326 329 329 328 326 325 323 319 317 313 332 332 334 333 339 334 336 342 344 344 344 344 344 345 346 348 349 350 350 349 350 350 350 350 351 352 353 353 353 353 353 354 353 353 353 353 352 352 352 352 352 352 352 352 351 350 350 350 350 350 350 350 349 349 348 348 347 347 347 346 344 344 345 345 345 344
316 310 309 304 303 297 293 292 291 287 292 289 291 296 298 298 299 300 301 318 324 326 325 323 321 326 324 318 321 330 327 328 333 332 331 335 335 339 342 343 345 344 344 344 345 346 347 350 350 350 349 349 349 350 350 352 353 353 353 353 353 353 353 353 353 352 352 352 352 352 352 352 352 352 352 351 351 351 350 350 350 350 350 351 349 348 347 346 346 346 346 346 345 345 345 344 343
308 310 309 302 298 300 294 295 290 289 290 289 291 297 299 298 299 301 309 322 324 324 320 323 321 327 329 327 330 321 322 332 333 336 335 337 340 341 342 343 343 342 342 344 345 345 346 351 351 350 349 349 349 350 351 352 352 353 353 353 353 353 353 353 353 352 352 352 352 352 351 351 351 351 351 351 351 350 350 350 350 350 349 347 346 345 345 346 346 346 346 346 346 346 345 344 343
308 304 310 306 302 300 295 294 293 291 293 293 293 297 299 300 300 301 305 321 325 325 320 322 320 322 324 326 329 325 333 326 334 334 336 335 340 342 342 343 342 341 342 342 342 343 346 350 350 350 349 349 349 350 351 352 352 353 353 353 353 353 353 353 353 353 352 352 351 351 351 351 351 350 350 350 349 349 348 348 348 347 346 345 346 347 346 346 346 347 347 347 347 346 345 344 345
308 302 301 298 300 298 292 288 288 289 297 297 295 299 300 302 301 302 300 305 319 321 325 323 326 324 322 328 332 336 339 339 335 334 337 338 341 341 342 341 341 339 341 341 342 344 347 350 350 349 350 349 350 351 352 353 353 353 353 353 353 353 353 353 352 352 352 352 351 350 349 349 348 347 347 348 347 347 347 347 346 346 346 346 346 347 346 346 347 347 347 346 347 347 347 346 345
312 305 300 294 293 295 291 288 290 290 294 297 299 300 301 303 303 302 300 300 304 317 321 325 325 322 320 332 323 336 337 338 337 339 339 339 340 340 341 341 339 339 340 342 343 345 350 350 350 349 349 350 351 352 352 353 353 353 353 353 353 353 352 352 352 351 351 350 349 349 349 348 347 347 346 345 345 345 345 345 345 345 344 344 345 345 345 346 346 346 346 347 346 346 347 347 346
306 301 301 296 294 291 288 290 291 294 295 297 300 303 313 305 303 301 299 300 302 317 322 324 324 317 321 328 326 332 333 337 338 340 339 339 339 340 340 340 339 339 341 342 343 345 347 349 349 349 349 350 352 353 353 353 353 353 353 353 352 352 352 351 351 350 348 348 348 348 347 347 346 346 345 345 344 344 343 342 342 343 343 343 344 344 344 345 345 345 346 346 346 346 345 345 345
305 302 294 293 289 292 288 286 292 292 295 298 298 301 303 303 302 302 300 300 300 320 322 329 326 319 328 325 328 330 330 337 337 337 338 339 340 340 339 339 340 340 341 342 344 345 346 350 349 350 351 351 353 353 353 353 353 353 352 352 352 352 351 351 350 349 348 347 347 347 346 345 344 343 343 342 342 342 341 341 341 341 341 343 343 344 344 344 344 345 345 346 347 346 346 347 347
298 297 296 295 290 288 288 287 288 293 295 297 298 302 303 303 301 301 301 300 315 317 325 330 327 327 328 327 327 334 336 336 335 334 338 339 339 338 338 340 341 341 341 343 344 345 346 346 350 351 352 352 352 352 352 353 353 352 352 352 351 351 350 350 349 349 348 347 347 346 345 344 343 342 341 341 340 340 341 341 341 341 341 342 342 343 343 343 343 344 345 346 346 346 347 347 347
298 296 297 288 288 289 287 288 291 294 294 296 298 303 304 302 300 300 301 299 310 322 324 328 325 331 327 328 327 332 335 335 335 337 338 339 338 339 339 339 341 342 342 342 345 344 345 347 349 352 352 352 352 352 352 352 352 352 351 351 351 350 350 350 349 349 348 347 346 346 345 345 344 344 343 341 340 340 340 340 340 340 340 341 342 342 342 342 342 344 343 345 346 345 347 346 347
297 292 288 289 286 288 288 290 290 295 294 296 299 303 303 301 300 300 299 302 316 321 322 327 333 331 323 326 331 334 333 335 337 338 337 337 337 338 339 340 342 342 343 345 344 344 346 347 348 349 351 353 352 352 351 351 351 351 351 350 350 349 349 349 349 348 347 347 346 346 345 345 344 344 343 343 343 341 340 339 339 340 340 340 340 341 340 341 342 342 343 344 344 345 344 345 346
298 295 293 290 288 288 288 288 288 293 290 295 300 303 303 301 300 300 299 299 318 318 326 333 332 332 327 329 329 330 332 337 337 337 338 338 339 339 340 340 341 343 345 345 345 346 347 347 348 349 350 349 349 351 352 351 351 350 350 350 349 349 349 349 348 348 347 346 346 346 345 344 343 343 343 343 343 342 340 340 340 339 340 339 341 340 342 342 341 342 342 343 342 343 343 344 346
299 294 292 289 288 288 288 291 291 290 292 296 300 302 301 304 302 301 299 307 321 329 333 337 334 328 322 326 325 330 333 336 337 337 337 338 339 339 339 341 342 343 345 345 346 347 347 348 348 348 348 348 348 348 348 350 351 350 350 349 349 349 348 349 349 348 348 347 346 346 345 344 344 344 344 344 344 343 343 342 341 339 339 340 340 341 341 342 342 341 343 343 344 344 344 343 344
299 294 290 291 286 289 288 290 291 290 293 296 301 303 300 303 303 301 317 314 326 332 332 326 333 325 330 330 331 333 335 336 336 336 336 336 337 337 339 340 341 342 343 344 345 346 347 347 347 348 348 348 348 347 347 347 350 350 350 350 349 349 349 348 349 348 348 348 346 345 345 343 344 341 344 342 345 345 343 341 342 340 339 340 339 340 341 341 342 343 344 344 344 345 344 344 343
299 297 292 286 287 288 288 290 290 289 293 297 301 300 299 301 303 324 331 332 327 327 330 331 329 336 332 334 335 335 336 336 336 335 334 333 334 334 336 337 338 338 341 343 344 345 346 345 346 346 347 347 348 346 345 345 348 349 348 349 349 349 349 349 349 349 348 347 346 346 345 336 334 334 333 335 345 340 344 343 343 343 342 342 341 341 341 342 342 342 342 343 343 343 343 343 341
298 293 288 287 287 290 291 293 293 293 296 298 299 301 300 298 299 327 329 330 329 329 329 332 335 334 335 335 336 336 336 334 333 332 331 330 332 331 332 334 335 335 337 340 343 344 344 344 344 345 345 346 347 347 346 344 346 347 342 344 344 346 347 349 344 341 348 341 347 342 336 341 335 334 334 346 340 341 341 343 343 343 343 343 343 344 344 344 345 345 344 345 345 344 344 333 331
296 290 290 291 289 293 294 297 297 296 297 299 300 300 299 298 299 303 319 323 326 324 326 329 328 331 333 335 334 334 334 332 332 331 330 329 329 329 330 332 333 335 336 338 340 342 342 343 343 343 344 345 346 346 345 344 343 342 341 341 343 347 346 346 341 344 338 338 340 339 341 337 336 335 338 341 343 344 340 343 343 344 343 344 344 344 344 344 344 344 345 345 345 345 335 326 325
296 290 291 292 294 296 295 297 297 297 298 297 298 298 299 298 305 304 317 321 324 323 323 326 326 326 329 331 333 332 333 332 331 330 329 329 329 328 329 330 331 333 335 338 338 340 341 341 342 343 344 345 345 345 345 344 341 338 340 339 339 338 338 343 337 339 339 338 339 338 339 338 340 336 346 347 350 341 338 344 346 346 346 345 345 343 343 342 343 341 341 342 341 337 330 327 327
296 295 290 292 295 295 297 297 298 298 298 298 298 296 296 299 326 313 322 321 320 323 328 326 326 328 329 331 332 332 331 330 330 330 329 329 329 329 330 331 331 333 335 338 339 338 339 339 341 342 344 344 344 344 344 343 341 339 338 338 338 335 336 335 336 335 336 336 336 338 337 339 339 337 336 337 335 336 332 335 336 336 337 335 343 334 335 336 335 332 331 335 331 330 329 329 326
296 296 296 294 295 295 298 299 299 298 298 296 295 295 297 307 326 325 319 314 314 324 328 331 331 331 330 330 331 332 331 330 330 330 330 329 328 328 330 331 333 334 336 335 337 338 338 339 340 341 342 342 343 343 343 344 343 340 339 337 336 334 335 335 334 337 336 336 335 337 340 337 335 335 336 338 338 335 334 334 335 334 334 336 338 335 335 333 334 334 335 336 335 330 330 329 325
294 295 297 295 296 297 298 298 298 298 297 296 295 297 307 321 323 326 325 309 308 330 332 332 332 332 332 332 332 331 331 330 331 330 331 329 329 329 330 332 333 333 335 335 337 338 338 339 340 341 340 341 341 342 342 343 341 339 338 338 337 334 334 335 335 336 337 336 337 340 338 334 333 332 334 335 332 333 334 333 334 336 337 336 339 338 336 334 334 335 335 336 335 334 334 331 327
295 293 294 296 296 297 298 299 298 297 296 297 298 299 305 320 315 326 326 329 331 332 333 332 332 332 332 329 330 330 330 330 330 331 332 331 331 331 332 333 335 335 335 335 336 337 338 337 339 339 339 339 339 340 339 340 338 338 337 342 340 338 337 336 335 336 337 337 340 340 340 334 333 331 334 334 334 331 332 332 332 334 336 336 335 335 334 333 333 333 334 334 335 336 337 334 332
295 294 296 296 296 297 298 297 297 297 296 297 298 297 306 320 321 328 327 329 330 330 330 329 329 328 328 328 329 329 329 330 329 329 330 332 332 332 333 334 335 335 334 334 335 337 338 338 338 338 338 338 338 339 338 338 337 336 335 336 336 342 336 337 335 335 336 338 339 339 340 332 332 331 331 333 333 330 329 330 333 333 333 333 332 332 332 333 333 332 332 333 334 333 331 332 334
296 295 298 298 297 297 299 299 298 297 296 297 297 301 321 326 330 327 329 329 329 328 327 327 327 325 326 327 328 328 328 328 328 328 329 330 331 330 331 331 333 333 333 334 335 337 337 338 336 337 337 336 336 336 336 336 334 332 332 333 336 342 335 335 335 334 334 335 335 337 338 334 333 333 332 331 330 329 329 330 333 333 333 333 332 330 332 331 331 331 331 332 332 329 330 331 332
296 297 297 296 298 297 297 296 299 300 297 296 296 311 320 322 320 320 330 330 329 327 326 326 325 324 325 326 327 327 328 327 327 329 329 330 329 329 330 331 332 332 334 335 336 336 338 337 336 336 335 337 334 334 333 332 332 331 332 331 333 334 335 336 334 333 332 331 332 333 333 336 336 333 331 331 330 328 329 331 331 331 332 332 332 332 332 333 331 331 331 331 330 330 330 330 331
299 296 297 297 297 298 297 295 296 297 297 296 297 305 318 317 320 321 328 330 329 325 324 324 324 323 324 325 325 327 326 326 328 328 327 328 328 328 329 330 332 332 333 334 336 337 337 337 336 335 334 334 334 332 333 331 331 332 331 332 332 333 334 333 333 333 334 332 333 331 332 332 335 332 332 332 331 329 330 331 330 332 331 333 335 334 333 334 333 333 334 334 332 330 329 329 330
296 297 293 293 295 296 298 297 297 295 296 296 299 310 310 311 315 326 329 330 328 325 324 323 323 323 323 324 324 324 325 326 327 327 327 329 329 330 329 331 332 332 334 336 336 336 335 333 334 333 333 334 332 332 332 332 332 332 332 332 333 334 333 332 332 332 332 334 333 332 332 333 334 331 332 332 336 330 331 330 331 332 332 334 335 334 333 333 333 333 333 333 334 331 331 331 332
296 296 293 293 292 291 297 298 298 294 296 297 304 290 291 309 322 326 328 328 327 324 322 322 321 321 321 322 322 323 324 326 326 326 327 328 329 330 330 331 333 333 334 334 332 332 332 332 334 333 333 332 332 332 332 332 331 332 333 332 334 332 332 333 335 334 335 333 333 333 332 333 331 331 331 331 332 331 330 332 332 333 333 334 333 333 331 331 331 330 330 330 333 329 328 329 327
290 292 293 287 287 287 295 297 297 295 297 297 301 288 299 316 322 325 326 327 325 322 322 321 320 320 320 320 323 324 325 327 327 325 326 328 329 329 330 331 332 333 331 330 330 331 332 332 333 332 334 332 333 333 332 331 332 332 332 332 332 332 332 332 333 334 334 333 333 332 333 334 333 332 333 332 332 332 333 333 333 332 332 331 331 330 329 329 329 328 328 327 326 327 326 326 324
289 288 286 288 288 288 292 294 297 294 296 297 296 288 304 315 320 322 325 325 324 321 321 321 320 320 321 322 323 324 325 326 325 325 325 326 327 329 329 329 330 329 329 329 331 331 331 331 332 332 332 331 331 332 332 332 332 331 333 335 332 331 331 331 331 332 332 332 332 332 333 333 334 332 334 334 331 332 332 331 331 331 330 329 328 328 328 326 326 326 326 325 324 323 323 321 322
286 287 286 287 287 287 290 294 296 298 297 295 296 288 310 314 319 322 324 323 323 321 320 320 320 320 321 322 323 324 324 324 324 325 325 325 325 327 326 326 327 328 328 329 330 330 331 332 332 331 330 331 332 332 332 333 333 333 332 332 331 331 331 331 331 331 332 332 331 332 333 336 335 335 335 334 332 331 331 330 329 329 329 327 326 325 325 325 324 324 323 325 323 320 319 318 319
284 285 286 287 287 285 287 289 293 296 296 292 308 307 311 316 319 320 322 323 321 320 319 320 320 320 321 322 323 323 323 323 323 324 324 324 325 325 325 329 327 328 330 329 330 330 330 330 329 330 331 331 331 332 333 333 333 332 331 331 333 331 331 331 331 332 331 331 331 332 332 332 333 333 333 332 331 331 329 328 328 328 327 325 324 323 322 323 322 322 321 322 322 319 317 316 316
286 284 283 283 286 287 288 289 290 294 295 294 305 306 310 315 318 319 320 322 321 320 320 320 320 320 321 321 322 322 323 322 323 325 327 327 327 327 327 326 328 328 328 329 329 330 330 331 332 332 331 332 333 334 333 331 332 331 330 330 329 330 330 330 331 331 330 330 329 329 329 329 329 328 329 330 328 326 325 325 325 326 326 323 321 320 320 320 320 320 319 319 320 318 315 315 315
287 285 283 283 284 284 288 292 292 295 292 294 301 303 310 314 316 318 319 320 319 319 320 320 320 320 320 321 321 322 322 322 324 328 329 329 329 329 328 329 329 329 330 330 330 330 332 332 332 332 333 334 333 331 331 331 330 329 328 328 329 329 330 330 327 327 326 326 327 326 325 325 326 326 325 326 325 324 322 322 322 323 323 321 319 318 317 317 317 317 318 318 316 316 315 315 314
286 286 285 285 286 285 289 291 293 294 292 295 299 309 313 314 314 316 318 318 318 318 318 318 319 319 320 320 321 321 321 321 326 329 330 330 329 330 330 330 330 331 331 331 330 331 332 332 332 331 333 333 331 329 330 330 328 327 327 328 328 329 327 325 324 324 324 324 325 325 324 324 323 324 324 323 322 324 321 320 320 320 320 319 318 317 316 316 317 315 315 317 315 312 312 313 313
288 287 285 284 286 286 289 291 293 294 293 292 306 310 312 313 315 315 317 317 315 316 317 318 318 319 320 320 320 321 321 325 327 327 328 329 329 329 330 330 330 328 329 330 330 331 332 332 332 332 332 330 328 328 329 328 327 327 328 328 328 326 324 322 321 322 323 324 324 323 322 321 321 321 323 320 320 319 318 318 318 317 318 317 317 317 316 317 314 314 314 313 314 312 310 311 311
288 286 284 284 284 287 289 290 293 293 297 300 310 309 310 313 314 316 316 316 317 318 318 318 319 319 320 320 321 321 322 323 325 327 327 327 328 328 329 329 330 330 329 330 331 332 332 332 332 332 331 328 328 330 328 327 327 329 329 328 327 324 325 323 322 323 323 321 321 321 321 320 319 319 319 320 317 316 316 316 316 316 315 317 314 313 312 312 312 312 312 311 310 311 311 312 310
286 285 283 282 284 286 284 290 306 308 299 306 308 307 310 314 315 315 317 317 317 319 320 320 321 319 319 320 321 321 321 322 323 324 325 326 327 328 329 329 329 330 329 329 331 331 332 332 332 331 329 328 328 330 329 328 329 330 329 327 324 322 321 323 321 321 320 319 318 319 318 318 318 317 317 317 315 314 314 314 314 314 314 315 312 311 310 310 310 310 311 312 309 306 306 307 311
287 287 284 284 286 287 286 286 304 309 312 312 310 307 308 311 310 311 316 318 317 318 319 319 321 322 322 322 322 323 321 323 323 324 325 325 326 326 328 329 330 329 329 330 331 331 331 331 331 330 330 330 330 331 329 330 331 328 326 324 323 321 321 320 319 318 319 319 317 316 315 316 316 315 315 315 316 313 313 313 313 313 313 312 312 310 309 309 309 309 309 309 308 305 304 305 307
285 287 288 286 287 287 291 299 301 299 301 308 307 296 300 308 311 311 313 314 314 317 316 317 319 320 321 320 321 323 323 325 324 324 324 325 326 327 328 328 329 330 330 331 332 331 332 331 330 329 329 330 330 329 329 330 329 325 323 321 319 318 317 317 315 314 314 314 313 315 314 314 314 314 314 314 315 315 312 313 312 312 311 311 311 310 309 309 308 308 308 308 307 307 304 304 303
283 285 290 289 289 288 295 301 295 290 291 303 308 290 290 301 304 310 313 313 313 316 315 316 318 319 320 320 321 322 322 323 324 324 325 325 326 327 327 327 329 329 330 331 331 331 331 330 330 328 329 329 329 328 330 330 326 325 323 322 321 319 317 317 317 316 314 314 313 312 312 312 313 313 313 313 313 314 312 312 312 311 311 311 313 309 308 308 309 309 310 307 307 307 304 303 302
283 287 290 290 289 290 298 298 293 291 303 307 304 295 292 294 302 304 312 312 312 313 314 315 317 318 319 320 321 322 322 324 323 323 324 326 327 327 326 328 329 329 330 331 330 330 329 328 327 327 328 328 328 329 329 329 326 325 324 322 321 318 316 315 316 315 315 315 312 312 312 311 312 312 312 313 314 314 313 311 311 311 311 311 311 308 308 308 308 309 309 307 308 307 305 303 302
285 288 291 289 290 288 290 293 291 294 299 293 299 300 291 291 299 306 312 308 310 311 313 314 316 318 319 320 321 322 323 324 323 322 324 326 326 327 327 328 330 330 330 329 329 328 328 327 326 326 327 327 327 328 329 328 328 326 324 322 320 318 317 317 318 317 315 314 312 312 311 311 311 312 312 312 311 313 315 311 311 310 310 311 313 308 308 307 307 306 305 305 304 304 305 304 302
289 290 291 290 289 289 289 286 292 295 291 288 296 299 291 290 297 303 305 307 308 310 313 314 316 318 319 319 321 322 323 324 324 324 326 327 327 327 328 329 329 329 330 329 328 327 326 325 324 324 323 324 326 328 328 327 326 325 322 321 319 318 318 316 316 315 313 312 310 310 310 310 310 311 311 310 309 309 309 310 310 310 310 312 311 307 307 306 305 305 305 304 303 302 303 302 301
290 291 290 288 286 287 288 284 287 290 284 289 297 299 295 287 298 302 300 302 309 311 313 314 316 317 319 320 320 321 322 323 324 324 326 327 328 328 329 328 328 329 329 327 326 324 323 323 322 320 319 321 325 326 327 326 325 324 322 321 319 317 317 316 314 313 312 310 309 308 308 308 308 308 308 307 307 307 308 311 308 308 308 310 306 304 304 305 304 303 303 303 302 301 300 300 300
292 287 286 286 284 283 283 281 287 281 280 289 297 299 296 286 290 304 307 310 311 312 311 312 314 316 318 319 320 321 322 323 325 325 325 326 326 327 328 327 327 328 327 325 324 322 321 320 319 317 317 319 322 324 325 325 325 324 322 321 319 318 317 315 313 311 310 308 308 306 306 307 306 306 305 304 305 305 306 305 307 305 305 303 303 303 303 304 304 303 302 302 301 301 301 301 299
290 286 286 282 276 279 274 279 275 276 279 283 296 299 291 292 294 306 309 309 310 312 314 314 314 315 317 319 320 321 322 324 324 324 325 325 325 325 325 326 326 326 325 323 322 321 320 319 318 316 315 317 319 320 321 323 323 323 322 320 319 318 316 314 313 310 308 306 306 306 304 304 304 304 303 303 303 304 305 303 303 303 303 304 303 303 303 303 303 302 302 301 301 300 299 299 298
288 286 281 280 275 274 270 274 275 277 281 285 294 299 292 290 294 302 308 311 311 313 315 316 316 316 317 318 320 321 322 323 324 325 325 325 325 325 326 326 326 324 323 321 320 319 319 318 317 316 314 315 316 317 318 319 321 321 321 320 319 317 314 313 311 308 307 306 306 305 305 304 304 303 303 302 302 303 303 303 303 302 302 303 304 303 303 303 303 302 301 300 300 299 299 298 297
289 288 287 281 280 276 273 275 275 277 279 282 290 292 283 288 290 299 309 313 313 313 313 314 315 316 318 320 321 321 322 323 324 324 324 324 325 325 325 325 324 323 321 320 319 318 318 317 316 315 313 313 314 314 315 316 316 318 318 318 317 316 313 311 309 309 308 307 306 306 305 305 303 302 302 302 303 302 303 303 303 301 301 301 301 301 302 301 302 302 302 301 300 299 298 298 297
288 286 287 281 283 280 279 277 278 279 280 280 287 285 286 292 298 305 307 312 313 313 313 314 314 317 318 318 320 320 321 322 324 323 323 324 325 325 325 324 323 321 320 319 318 317 316 316 315 314 313 312 313 313 312 313 313 314 315 315 314 314 313 311 310 310 308 308 306 306 305 304 303 302 303 302 301 301 300 300 301 300 300 301 301 301 300 300 300 300 300 300 299 301 297 296 296
285 287 283 287 288 287 279 277 282 279 279 278 279 289 294 294 299 302 307 310 310 311 311 312 313 315 317 317 319 320 321 322 323 323 323 324 324 324 324 322 321 320 319 318 317 317 315 314 314 313 312 312 312 311 311 312 312 313 313 313 312 311 310 308 307 307 307 307 307 306 304 303 303 303 303 302 300 300 299 298 298 298 299 299 300 300 300 300 300 299 299 298 298 298 298 296 296
286 283 286 289 291 288 283 276 276 275 276 276 284 288 287 288 285 299 304 307 307 309 310 311 312 314 315 316 318 320 320 321 323 323 323 324 324 324 323 322 321 320 319 317 316 315 314 314 313 312 312 311 310 310 310 311 311 311 310 310 310 309 308 307 307 306 307 307 306 305 304 303 301 302 301 301 298 298 298 301 297 297 298 298 298 299 299 299 299 299 298 298 298 298 297 297 297
289 289 291 288 278 280 279 279 276 274 275 275 282 288 287 290 291 300 300 305 306 307 309 310 311 313 314 316 318 321 321 321 321 321 322 322 323 323 322 321 320 319 318 317 315 315 313 313 313 312 311 310 310 310 311 310 310 310 310 309 309 308 308 307 308 308 307 306 305 304 302 300 300 300 300 297 296 296 296 296 296 296 297 297 297 298 299 299 299 298 298 297 297 297 296 295 295
290 290 289 288 286 282 280 279 280 282 274 273 280 285 283 292 294 302 303 305 307 307 308 309 311 313 314 316 318 320 320 320 321 321 321 322 322 322 321 320 319 318 316 316 315 314 313 312 312 311 310 310 310 310 310 309 309 309 309 308 308 308 308 308 308 307 306 306 305 302 300 299 298 299 296 296 295 295 296 295 296 296 296 296 296 297 298 298 298 297 297 296 296 296 295 294 294
286 285 283 286 288 287 288 286 282 282 273 271 275 279 283 289 296 303 305 307 308 309 308 310 311 313 314 316 318 320 320 320 320 320 321 321 321 321 320 319 319 317 316 315 314 313 312 312 311 311 309 308 309 309 309 309 309 308 308 307 307 307 307 308 307 307 306 304 303 301 299 298 298 296 295 295 295 294 295 295 295 297 295 295 295 295 296 297 298 297 296 296 295 295 294 294 295
286 286 283 284 285 282 281 279 284 281 283 276 277 277 280 288 301 306 307 309 310 311 310 310 311 313 314 316 319 320 320 320 320 321 320 320 320 320 319 318 317 316 315 314 314 312 311 311 310 310 309 309 308 308 308 308 308 307 307 307 306 306 306 307 306 306 304 302 300 299 299 297 296 295 295 294 294 294 294 294 294 294 294 294 294 294 294 296 297 296 296 297 295 295 294 293 293
Wind_Speed
8 8 8 6 2 1 1 5 2 3 4 2 1 1 1 1 2 2 3 4 1 1 1 2 7 5 3 4 6 4 1 5 5 7 4 1 6 7 9 12 11 10 10 9 7 8 8 12 14 14 14 14 15 14 14 15 14 14 13 13 13 14 14 14 14 13 13 13 12 11 11 10 10 11 10 10 9 9 9 9 9 9 9 10 11 10 10 9 9 9 9 8 10 11 12 12 11
7 7 8 4 2 1 1 1 4 5 3 4 0 2 2 2 3 0 6 3 3 0 2 3 5 6 9 10 8 4 4 6 2 2 5 7 9 7 10 12 12 13 10 8 7 8 7 9 14 13 14 15 14 15 15 15 14 14 13 13 13 13 14 14 13 13 12 12 12 11 11 11 10 10 10 10 9 8 8 9 8 8 9 9 10 9 9 9 9 9 8 8 9 11 11 11 11
7 8 9 5 3 2 1 4 2 1 4 6 3 5 2 3 4 3 6 6 1 4 3 6 5 4 2 3 2 2 1 4 6 5 5 10 13 7 11 11 10 10 10 7 8 8 8 9 14 14 14 15 14 15 15 14 14 14 13 13 13 13 13 13 13 13 12 12 12 12 11 11 10 10 10 10 9 8 9 8 7 8 8 9 9 9 8 8 8 8 8 8 8 9 9 9 9
5 2 2 3 2 4 1 3 3 2 1 5 7 2 1 4 6 0 6 3 1 4 2 2 3 3 1 0 0 6 3 2 1 5 7 9 3 10 11 12 11 9 8 7 8 8 7 11 14 14 14 14 14 14 14 14 14 13 13 13 12 12 13 13 13 13 12 12 12 11 11 10 10 9 9 9 9 9 8 7 7 8 9 10 10 9 9 9 9 8 7 7 8 8 8 8 8
4 5 2 1 2 2 2 0 3 2 1 2 4 6 7 4 3 1 1 2 4 4 1 2 2 4 1 3 1 1 3 5 5 2 6 5 9 9 10 11 10 10 9 9 8 8 8 16 13 12 14 15 14 14 14 14 13 13 13 12 13 12 12 13 13 13 13 13 12 11 11 10 9 9 9 9 9 8 7 8 8 8 9 9 9 8 8 7 8 8 7 7 7 8 8 8 8
1 3 0 1 0 2 4 1 1 1 6 3 2 5 5 8 5 1 1 5 8 7 5 3 4 3 2 2 1 2 4 0 6 4 6 7 12 11 11 10 10 10 9 8 7 5 8 16 14 13 13 14 14 14 14 14 13 13 12 12 12 12 12 12 12 12 12 12 11 11 11 10 9 9 8 8 8 8 7 6 6 7 7 7 7 7 7 7 7 8 8 8 8 8 7 7 7
3 4 4 4 2 4 4 2 3 3 8 6 3 4 7 9 4 0 2 1 6 7 1 2 5 4 3 1 3 3 1 7 6 6 4 12 13 12 11 9 11 11 10 8 6 6 9 12 12 13 13 14 14 14 14 13 13 13 12 12 12 12 12 12 12 12 12 11 10 10 9 8 7 7 7 6 6 6 6 6 6 6 6 6 7 7 7 7 7 7 7 8 8 8 7 6 6
2 1 1 2 1 2 0 2 4 5 4 6 4 5 10 10 2 2 4 5 4 4 5 5 5 4 1 3 4 3 10 6 11 13 14 12 13 11 11 10 12 11 10 8 7 7 13 12 13 13 14 14 13 14 14 14 13 12 12 11 12 11 11 11 11 10 10 10 10 9 9 8 7 6 6 5 5 5 4 5 5 5 6 6 6 6 6 6 6 6 6 6 7 7 7 7 6
2 3 0 4 1 2 2 2 4 2 6 3 9 9 12 9 3 2 4 5 0 3 3 8 4 4 2 6 4 2 6 11 13 16 13 13 12 11 8 10 14 11 10 9 8 7 8 14 13 13 14 14 14 13 14 13 13 12 12 12 12 11 11 10 10 9 10 9 9 9 9 8 7 6 6 5 4 4 4 3 3 4 5 4 5 5 5 6 6 6 6 6 6 6 6 6 6
1 1 2 1 4 2 0 3 1 4 4 4 4 11 13 10 11 5 5 7 3 1 3 5 3 6 7 10 3 3 5 14 16 14 11 10 10 9 9 9 13 16 12 10 9 9 8 15 14 13 13 13 13 13 13 12 12 12 12 12 10 9 10 10 9 9 9 9 9 9 9 8 7 6 6 5 4 4 4 3 3 3 3 4 4 4 5 5 5 6 6 6 6 7 6 6 5
0 4 2 2 1 2 3 5 4 5 3 3 5 10 10 8 6 9 6 5 2 3 4 8 7 9 7 5 4 3 9 13 16 13 10 10 10 10 8 7 8 13 14 12 11 9 9 9 17 13 13 12 11 11 11 11 12 11 11 10 9 10 10 9 9 9 8 8 8 8 8 8 7 6 5 5 4 3 3 3 3 2 3 3 3 3 4 4 5 6 6 6 7 7 7 7 6
0 1 0 3 4 7 6 4 3 6 5 4 4 8 1 4 4 6 12 11 3 4 6 6 7 8 8 4 4 8 8 7 10 12 10 10 9 9 9 6 7 7 12 13 10 8 8 8 9 14 15 13 12 13 12 13 13 12 11 10 10 10 9 9 8 8 8 7 7 7 7 6 5 4 4 4 4 3 3 3 2 2 2 2 2 3 3 4 4 5 6 6 7 7 8 7 8
2 2 4 3 4 3 2 1 4 3 3 4 6 3 2 4 6 9 6 3 1 5 2 1 14 2 4 5 7 8 9 7 8 10 11 9 9 7 7 6 6 7 8 9 10 8 8 7 7 7 11 16 13 14 14 14 12 12 11 11 10 10 9 8 8 8 7 7 6 6 6 5 4 3 3 3 3 3 3 3 2 1 1 1 2 3 3 4 4 5 6 7 7 8 8 8 9
4 5 7 4 1 4 5 4 0 1 4 5 4 5 4 2 4 3 1 7 2 2 0 12 7 14 11 9 7 6 8 9 9 9 9 10 7 7 7 6 6 7 8 8 9 9 7 6 6 6 8 8 8 12 15 14 12 12 11 11 10 10 9 9 8 7 7 6 6 5 5 5 3 2 3 3 3 3 3 3 2 2 1 1 2 3 4 5 5 6 6 7 8 8 8 8 8
4 2 3 2 2 3 3 4 5 4 7 4 4 2 3 4 3 7 4 1 1 0 7 5 3 5 7 13 7 8 11 12 11 10 10 9 7 6 6 5 6 6 8 9 10 9 9 7 7 6 6 6 7 6 6 10 14 12 12 12 11 10 9 8 8 7 7 6 6 5 5 4 2 2 2 2 2 2 2 2 2 2 2 1 3 3 5 6 6 7 7 8 9 9 9 9 9
3 4 2 3 4 6 4 3 1 3 7 4 6 2 5 13 1 2 4 3 3 3 3 2 2 0 10 4 14 16 15 13 11 11 11 11 8 6 5 5 6 6 7 7 7 7 8 8 6 6 6 7 6 5 6 6 10 12 12 12 11 10 9 8 7 7 6 6 6 5 5 2 1 0 1 1 2 3 2 1 2 2 2 2 2 3 5 6 7 7 8 8 9 9 9 10 9
2 3 1 1 5 4 3 3 6 6 4 5 7 4 4 8 2 3 4 9 13 5 8 3 2 6 11 12 17 20 16 14 13 13 13 9 7 5 4 4 4 3 4 6 6 7 7 9 9 6 7 7 6 5 4 5 7 11 10 11 11 10 9 8 7 7 6 5 4 5 3 1 1 1 2 0 1 0 2 1 2 2 2 3 3 4 5 6 6 7 8 8 8 9 9 10 10
2 3 4 5 5 6 5 7 8 3 4 3 4 4 2 8 2 2 6 12 13 11 11 10 13 11 14 13 18 18 18 17 15 15 10 9 8 8 5 4 3 4 5 6 7 7 8 9 10 8 7 8 6 5 4 4 4 7 4 4 4 5 6 6 4 2 5 1 4 3 2 1 1 0 1 3 0 0 0 1 1 2 2 1 1 2 4 5 6 7 8 8 9 8 9 5 6
5 3 6 12 7 5 7 6 7 2 5 8 5 0 1 5 1 2 2 3 10 14 8 14 15 14 14 17 17 18 17 16 16 16 16 14 10 11 8 6 5 4 6 7 8 9 8 8 9 11 10 9 8 7 5 3 4 3 3 3 3 5 4 4 2 2 1 1 0 1 1 1 1 1 1 3 2 3 1 2 1 1 0 1 1 2 3 4 5 6 6 7 8 8 5 4 4
5 5 9 8 6 6 7 4 6 6 6 6 6 2 0 3 1 1 4 6 6 15 13 12 16 17 15 16 17 16 16 15 15 17 17 15 12 12 12 12 10 10 11 9 9 8 9 9 10 11 12 10 8 6 5 4 4 3 3 3 3 3 2 3 2 1 1 1 1 1 1 1 1 2 5 6 4 0 1 3 3 3 4 4 4 2 2 3 4 5 5 6 4 3 4 4 5
2 4 5 6 7 6 7 7 7 8 5 5 6 2 5 1 2 2 6 9 4 6 13 24 20 20 18 18 18 16 16 15 15 15 16 15 16 15 16 16 14 12 8 7 8 9 9 9 9 9 9 9 8 6 6 5 4 4 3 3 2 2 2 2 3 2 1 2 2 1 2 2 2 3 3 2 0 1 0 2 2 3 2 3 4 3 2 3 2 3 3 3 3 3 4 5 3
2 9 4 6 4 6 6 10 10 7 6 4 4 4 7 2 4 4 6 6 7 13 11 16 21 23 22 21 18 16 16 17 16 16 19 21 23 18 11 11 10 8 8 8 8 8 9 9 9 8 8 8 7 6 6 7 7 4 4 4 2 1 2 2 2 3 2 2 2 2 2 2 2 1 1 1 2 1 1 1 1 2 3 3 2 2 2 3 4 4 3 4 4 2 3 4 3
7 3 5 5 6 8 4 5 8 8 6 6 5 6 2 3 2 1 1 4 4 4 11 17 23 25 24 22 20 18 17 18 18 19 18 16 10 8 9 8 9 11 9 8 7 7 8 8 8 8 8 7 8 6 5 5 5 5 5 5 4 3 2 2 3 3 3 3 3 3 4 3 3 2 1 1 1 1 1 1 1 1 2 3 3 2 2 2 2 3 3 4 4 4 4 3 3
4 6 1 5 5 9 5 6 7 7 10 10 6 2 1 3 2 1 3 3 2 13 13 14 14 15 19 19 19 22 21 20 20 17 15 14 13 14 14 13 9 6 7 7 7 7 7 9 8 8 8 8 7 6 6 6 5 5 4 5 4 4 3 3 3 3 3 4 3 4 3 4 4 3 1 1 1 0 1 1 1 0 1 3 2 1 3 4 3 3 3 3 4 3 4 3 3
10 8 4 2 4 5 7 6 5 6 8 7 1 2 0 3 4 3 4 3 7 14 14 14 15 14 12 17 17 16 15 13 14 9 5 6 8 8 8 7 7 6 7 7 6 6 7 7 8 8 8 8 7 7 6 5 5 4 3 3 3 3 3 3 2 1 0 0 1 1 1 2 1 1 0 1 1 1 1 0 0 1 1 3 2 2 1 3 4 4 3 3 3 3 3 3 3
6 6 1 3 4 4 9 10 9 6 2 2 2 2 4 10 8 8 5 5 6 12 14 15 15 15 15 16 17 16 16 17 12 9 9 7 7 10 9 8 8 8 6 5 5 5 5 6 8 8 7 7 7 6 6 5 4 4 3 2 2 3 4 3 2 2 2 2 1 1 1 1 2 2 2 2 1 1 1 1 1 0 1 2 1 2 0 1 3 3 2 3 2 2 3 3 3
2 8 7 5 6 4 4 7 12 11 5 3 5 6 6 3 2 3 3 7 10 12 13 12 15 16 15 14 13 13 15 14 13 8 7 7 7 9 10 8 8 7 7 6 5 5 4 6 6 6 6 5 5 5 4 4 4 3 3 2 3 4 4 4 4 4 2 1 1 1 1 2 3 3 2 1 2 2 0 1 1 2 4 4 1 1 1 2 1 1 2 2 2 3 3 2 3
9 3 5 10 10 8 5 4 9 5 5 7 7 4 4 4 1 6 11 9 10 14 13 13 11 13 13 14 12 9 7 6 7 8 13 12 10 9 10 9 8 7 7 7 6 4 4 5 5 5 5 6 6 5 4 4 4 4 3 4 4 4 4 4 4 3 2 1 1 1 2 3 3 2 2 1 1 1 0 1 2 5 4 4 3 3 4 3 3 2 1 2 2 2 2 3 3
2 6 6 4 6 10 12 11 9 4 6 7 6 7 2 3 2 9 11 10 10 10 12 12 11 10 9 9 8 7 7 7 6 8 9 9 8 7 10 7 8 7 5 8 7 5 5 4 4 4 5 5 6 6 5 4 5 4 4 4 4 4 4 4 4 3 2 1 2 2 4 3 3 2 3 2 1 1 0 2 4 4 4 4 4 4 4 4 5 5 5 4 4 5 5 5 4
1 1 3 3 2 7 15 8 8 5 4 8 9 5 4 2 7 10 11 12 10 10 10 9 9 8 7 7 6 5 4 6 7 6 6 6 7 7 8 8 7 7 7 5 5 5 3 3 4 3 5 6 6 6 6 5 5 4 4 3 4 4 3 4 4 3 3 2 3 4 4 3 2 2 2 2 2 1 1 4 4 5 4 5 5 5 6 5 5 6 5 5 5 5 5 5 6
3 2 3 4 4 8 8 8 9 8 6 9 9 8 3 6 10 8 7 11 15 13 11 9 8 8 7 5 7 7 6 5 5 3 4 4 4 3 5 6 7 7 5 5 5 5 5 4 4 4 5 6 6 6 7 6 4 5 4 4 4 4 4 4 3 3 4 3 3 3 3 2 2 2 2 2 2 1 3 5 5 4 5 5 6 5 5 5 5 6 5 6 4 6 4 4 5
1 5 7 7 11 4 5 5 9 14 2 9 9 7 7 10 10 6 6 9 11 9 10 8 8 8 7 7 7 7 7 4 3 1 3 3 3 4 6 6 5 5 6 6 6 6 6 3 3 6 4 6 6 6 6 6 5 4 4 5 4 4 4 4 4 4 4 3 3 3 3 2 1 2 1 1 2 3 5 5 4 4 4 5 6 5 6 6 4 5 5 5 5 5 6 6 5
2 8 7 11 9 5 3 6 9 13 6 2 14 4 7 3 6 7 8 10 10 11 11 10 10 8 8 7 7 7 7 6 3 3 3 3 2 1 1 3 3 4 5 7 7 6 6 5 5 6 6 7 6 6 6 5 5 5 5 5 4 5 5 4 4 3 4 4 4 4 3 3 2 2 2 1 3 4 5 5 4 4 4 6 6 5 6 5 5 4 5 5 4 4 6 6 6
7 6 10 6 10 5 8 5 2 9 10 4 1 7 8 9 14 11 10 10 9 11 12 11 11 8 8 7 8 9 8 7 7 6 4 2 0 1 2 4 5 6 5 6 7 8 7 5 4 4 5 5 6 6 5 6 5 6 5 5 5 6 5 4 4 4 4 4 4 5 4 4 4 3 2 2 4 4 4 5 4 4 4 6 6 5 5 4 4 4 5 5 6 6 7 7 7
16 8 6 2 2 6 7 6 4 8 9 9 3 4 7 5 11 11 12 11 10 12 11 12 11 9 9 9 8 8 8 8 6 5 4 4 4 3 4 5 6 6 6 6 7 7 7 6 5 5 5 6 6 6 6 6 7 7 6 6 6 5 5 5 4 5 4 5 5 5 4 4 3 3 3 3 4 4 5 5 4 3 4 5 6 6 6 5 5 5 5 4 4 6 5 4 4
6 6 4 4 6 5 10 11 4 12 7 6 10 9 8 11 12 12 10 10 10 10 7 6 8 7 8 10 9 9 8 7 5 5 6 6 5 5 6 6 6 6 6 7 7 7 8 8 6 5 5 5 6 5 6 6 6 6 7 6 7 5 5 6 6 6 5 6 5 4 4 4 3 3 3 3 4 5 5 4 4 4 4 5 7 7 6 6 5 4 5 4 4 4 6 6 6
4 5 5 6 6 3 5 5 5 6 6 8 7 9 13 15 15 14 13 11 8 9 11 10 9 9 9 10 10 9 9 7 7 6 7 8 9 7 6 6 8 8 7 8 8 7 8 8 8 7 6 4 6 6 5 6 7 6 5 6 7 5 6 6 6 5 5 5 4 4 4 4 3 4 4 3 4 5 5 3 4 5 6 7 7 6 4 4 3 2 2 4 5 7 8 8 8
2 1 3 5 7 7 5 6 2 6 7 2 0 12 13 14 11 10 9 10 12 15 13 12 11 10 10 12 10 9 8 6 8 7 8 9 8 8 7 7 9 9 7 7 8 8 8 9 8 7 5 4 3 4 6 4 3 5 6 6 7 6 6 6 6 5 5 4 4 4 4 4 5 4 4 4 5 5 5 6 6 5 5 6 6 5 5 5 6 6 3 4 5 7 6 7 8
3 2 2 1 4 3 3 4 3 2 5 1 8 9 9 11 13 11 12 12 7 8 10 12 14 13 10 11 9 10 9 10 10 8 8 9 10 9 7 7 7 8 9 7 6 9 9 7 7 6 6 5 4 5 3 4 4 5 7 6 7 6 4 4 5 4 4 5 5 5 5 5 5 5 5 6 6 6 6 6 5 5 6 5 6 7 6 7 5 6 6 4 4 4 5 6 8
6 4 2 5 3 6 6 1 5 6 4 7 6 9 8 6 5 8 8 8 4 5 6 8 9 13 14 14 13 12 12 11 13 11 10 10 9 9 8 8 7 7 8 8 8 9 7 7 7 7 6 6 6 6 4 2 5 7 7 7 6 5 6 5 6 5 5 6 7 5 6 6 6 7 7 6 6 6 6 6 5 6 6 5 6 6 6 7 6 7 7 7 3 5 5 7 7
8 6 3 2 2 2 3 3 2 3 7 11 10 7 5 6 8 6 6 5 5 8 7 7 7 6 6 6 9 10 12 11 13 12 12 10 10 10 9 7 7 8 8 9 8 7 6 8 7 7 7 7 7 7 7 8 8 8 8 8 8 8 6 5 5 5 5 5 6 7 6 6 7 7 6 6 6 6 5 5 6 6 7 6 5 6 6 5 5 6 7 7 7 3 5 4 7
3 4 8 4 1 2 1 3 6 4 2 3 15 4 5 7 8 9 7 6 9 9 10 9 9 8 9 10 10 10 9 9 9 11 10 11 10 9 8 8 8 7 8 7 7 7 7 7 7 6 6 7 8 8 9 9 9 10 9 9 7 6 5 4 4 5 5 5 4 3 6 6 6 6 6 6 6 5 6 6 6 7 6 6 6 6 5 6 7 7 6 6 7 6 4 5 5
5 7 9 6 4 1 3 6 5 3 7 9 2 8 2 3 5 7 7 8 10 7 11 11 10 10 10 10 10 11 11 10 10 8 9 12 11 9 9 9 8 9 7 7 7 7 7 7 6 6 6 7 8 9 9 8 8 8 9 8 8 8 8 4 4 4 6 5 5 6 5 5 5 6 5 5 5 5 5 6 6 6 6 6 5 6 7 6 6 6 6 6 6 5 4 7 6
6 3 11 8 5 3 4 5 6 2 2 4 1 2 6 3 8 6 10 11 10 10 12 12 11 12 11 10 11 12 11 9 11 11 11 11 11 11 11 10 8 8 8 8 8 7 8 7 7 6 5 6 6 8 8 8 9 8 7 6 6 6 6 8 6 6 5 5 6 5 5 5 5 5 5 5 5 5 5 6 6 6 6 5 5 6 6 5 6 6 6 6 6 6 6 7 7
2 4 11 9 9 5 2 3 2 2 8 3 6 0 3 3 4 4 8 13 12 14 15 15 14 13 13 12 12 12 12 10 11 12 13 12 12 11 10 10 8 9 8 8 8 7 6 6 6 5 6 6 6 8 8 7 7 8 7 7 7 5 7 7 6 6 6 5 7 4 5 4 5 5 5 5 5 5 5 5 5 5 6 5 5 6 5 6 6 7 8 8 8 8 7 6 8
3 7 6 5 4 5 5 3 4 2 4 6 11 7 4 2 3 8 1 7 15 15 18 16 15 14 14 14 12 12 12 10 10 11 11 11 11 10 9 9 8 8 7 8 8 7 6 6 6 6 5 5 6 7 7 6 6 7 8 7 10 8 7 6 6 7 7 5 6 4 4 4 3 4 4 6 5 5 5 5 5 5 5 5 5 6 6 7 7 7 7 7 8 9 7 8 9
3 4 3 2 3 1 0 2 4 4 2 8 12 11 7 5 8 13 11 11 18 18 10 9 12 13 13 14 14 13 12 12 10 11 10 9 10 10 10 11 9 8 8 9 8 7 7 7 7 7 4 5 5 7 7 8 7 7 8 8 9 10 8 9 8 7 6 5 6 4 4 4 4 4 4 5 5 5 5 5 6 6 6 6 6 7 6 6 6 7 7 8 8 9 8 9 10
2 3 4 2 3 2 2 2 2 4 7 9 8 12 6 9 3 9 14 17 19 17 18 19 19 19 17 15 14 13 12 11 11 12 12 10 12 11 10 10 11 10 10 9 8 8 8 7 8 8 5 5 6 6 7 8 8 7 7 9 10 10 10 8 9 9 7 7 6 6 4 4 4 4 4 5 5 5 5 5 5 6 7 7 7 5 6 6 6 7 7 7 7 8 8 9 9
8 5 6 8 2 3 2 2 1 6 11 3 9 11 1 10 4 14 22 22 12 15 17 20 22 20 18 16 15 13 12 11 12 13 13 11 12 12 12 11 11 11 10 10 9 9 8 8 9 9 6 6 6 7 7 7 8 8 8 8 8 7 8 8 8 8 7 7 6 6 4 5 4 5 5 6 4 5 5 6 7 7 6 6 6 6 5 6 7 7 8 8 9 9 8 9 9
10 9 7 8 5 4 4 4 1 4 5 4 8 12 8 1 7 10 20 24 20 16 15 13 16 18 18 15 13 12 12 12 12 13 13 11 11 11 11 11 11 10 11 11 9 10 8 8 8 10 6 5 6 7 8 8 7 7 7 8 8 7 8 8 8 8 6 6 6 6 5 5 5 5 5 5 3 5 6 5 6 6 5 6 6 6 6 6 7 8 8 9 9 8 9 10 10
13 4 10 7 6 5 7 5 10 9 7 1 2 7 4 5 5 4 18 19 17 8 2 4 6 4 6 9 11 11 11 12 10 11 13 13 12 12 11 10 10 10 12 11 9 9 9 9 9 10 8 5 7 7 7 8 7 7 7 7 7 7 7 7 7 7 7 7 5 6 5 5 6 5 6 3 4 6 5 6 6 6 6 6 6 6 6 6 7 8 8 9 8 8 9 9 8
5 4 6 5 10 6 5 6 5 4 3 1 3 5 5 8 2 4 4 7 10 7 8 10 11 10 10 11 13 13 13 13 11 11 13 14 12 12 11 10 10 11 12 10 10 9 10 9 9 9 10 7 7 7 6 8 7 7 7 8 7 7 7 7 7 6 5 6 6 7 6 5 5 5 4 5 4 5 6 6 6 6 6 6 6 6 6 6 7 8 8 8 9 6 9 10 8
7 10 10 12 5 3 2 1 1 2 2 7 3 1 3 7 5 5 2 11 9 9 10 12 12 13 14 13 12 13 13 13 11 12 13 14 13 12 12 11 10 11 11 11 10 10 12 10 10 10 8 7 7 7 7 7 7 8 7 7 7 8 9 9 8 7 7 6 6 6 7 6 5 5 5 4 6 5 6 6 6 6 6 5 6 5 6 6 7 8 8 9 9 7 8 8 7
6 8 9 4 4 6 3 5 1 1 4 4 2 8 2 3 6 2 4 10 8 12 12 13 12 13 16 14 13 13 15 14 12 11 12 12 14 13 12 11 11 12 11 11 10 9 10 10 11 12 9 9 6 7 7 7 8 8 7 7 7 8 8 8 8 8 7 7 6 6 6 6 5 5 5 5 6 6 6 6 6 6 5 6 6 5 5 6 8 8 8 8 7 7 7 6 6
9 13 6 10 5 7 2 1 2 1 2 2 1 1 2 9 6 3 6 11 11 10 10 11 14 15 17 15 13 12 13 13 12 12 13 12 12 13 13 13 11 12 11 10 9 9 9 9 9 11 10 8 8 6 6 6 6 6 6 7 8 7 7 7 7 8 7 8 8 7 7 6 6 5 6 6 6 6 6 6 6 6 6 6 6 6 5 6 7 8 7 7 6 7 7 6 4
2 6 9 5 5 3 4 6 3 5 3 2 2 1 5 5 5 13 15 16 16 15 13 16 18 20 17 15 15 15 16 15 13 11 12 13 12 13 14 14 14 13 12 11 11 10 11 10 10 9 8 8 7 7 7 7 5 7 6 6 6 7 7 8 8 8 7 8 8 9 8 6 6 5 6 6 6 6 5 6 5 6 6 6 6 5 6 6 7 7 7 7 6 7 7 6 4
10 5 4 6 4 2 4 0 4 4 4 4 4 2 6 8 7 12 15 16 17 19 19 16 16 17 16 16 16 15 16 15 14 12 12 12 12 12 14 13 11 11 10 10 10 12 11 10 9 9 12 9 8 7 7 6 6 7 8 8 7 7 8 7 8 7 8 7 8 8 7 6 6 6 6 6 6 5 5 5 6 6 6 5 5 6 5 6 7 7 7 7 6 7 7 5 5
9 10 8 7 11 6 9 9 1 2 2 3 4 5 7 10 4 12 15 15 17 18 19 17 17 17 17 16 15 14 14 15 14 13 12 12 11 12 12 13 11 10 11 11 10 11 12 11 10 10 9 8 9 7 7 7 6 6 7 7 7 6 7 7 8 7 8 8 8 8 6 6 7 4 5 6 6 4 4 5 6 6 6 5 5 5 4 6 7 7 5 5 6 6 6 5 4
Wind_Direction
328 318 310 318 46 112 30 1 37 314 46 350 100 2 238 261 228 23 330 320 357 227 216 335 114 147 181 205 185 137 99 137 192 135 213 196 123 112 125 129 131 131 132 137 140 133 135 140 137 133 129 128 127 125 124 123 121 119 116 116 116 114 113 110 109 108 108 108 105 103 102 101 101 104 105 105 104 96 94 98 99 100 96 90 84 78 76 79 81 79 83 94 107 113 117 116 114
321 323 311 327 37 83 319 89 98 348 39 28 233 114 251 263 17 46 321 276 208 305 70 100 70 74 52 87 109 116 31 2 332 110 94 114 106 109 132 136 142 138 138 134 129 128 130 139 136 130 131 130 128 128 126 125 122 121 121 119 116 115 112 110 109 108 106 105 104 103 102 101 102 102 104 105 104 103 105 102 96 99 99 87 83 78 75 71 69 74 77 93 107 112 113 115 115
321 344 326 28 46 88 54 42 33 32 34 326 252 171 246 303 300 337 296 271 270 83 100 90 77 40 344 18 71 351 222 29 55 89 100 135 122 152 144 138 135 132 130 129 127 128 129 137 136 133 132 132 131 129 129 127 125 123 122 120 118 115 112 110 108 106 106 105 104 104 103 101 100 103 105 105 102 100 97 100 106 102 91 81 81 76 69 68 65 64 67 83 95 98 100 100 102
324 292 293 22 296 28 56 24 95 121 334 236 308 265 238 330 302 84 280 286 101 120 43 7 46 292 136 32 163 83 83 191 76 131 126 164 141 140 141 138 134 127 122 125 126 127 132 139 136 134 133 133 133 132 131 128 126 124 122 120 118 115 112 110 108 106 105 103 104 105 102 101 100 101 101 99 96 97 100 102 102 94 79 73 69 63 56 53 55 56 61 69 79 84 86 83 85
344 316 133 93 99 356 100 141 146 97 251 235 269 303 304 269 278 90 328 231 183 186 182 123 50 347 102 123 117 81 218 90 120 246 118 96 113 130 135 135 131 125 122 123 126 131 138 135 132 132 135 135 136 135 134 130 127 126 123 120 117 114 113 112 109 107 106 106 106 105 105 101 101 101 101 101 99 97 94 89 85 82 73 71 71 64 56 51 48 46 50 55 62 63 60 60 56
0 13 345 96 85 175 47 79 19 201 217 148 243 274 281 279 294 160 150 215 215 222 195 125 161 197 23 356 341 86 122 208 158 76 125 133 131 134 136 134 125 120 119 119 124 129 135 135 131 133 136 138 139 139 135 131 129 126 122 119 118 116 115 113 109 106 103 100 98 102 103 103 102 101 100 101 101 101 102 98 87 79 77 82 74 62 55 49 46 43 40 43 46 48 49 44 45
346 17 356 20 5 53 171 133 196 199 267 165 234 261 273 285 277 71 232 276 275 281 292 172 115 99 77 141 48 45 350 114 119 125 120 133 129 137 137 132 124 119 121 123 120 127 132 129 132 136 140 143 143 141 134 131 129 125 121 120 120 118 115 112 110 107 104 101 98 99 99 99 100 101 103 106 105 100 99 88 90 84 79 74 62 54 50 44 40 39 42 41 42 46 48 48 45
103 87 312 99 267 47 72 175 222 160 269 174 240 266 265 256 256 226 208 176 221 205 208 141 133 94 246 344 114 353 22 42 95 103 117 127 134 136 136 135 126 124 126 126 128 135 136 130 137 142 144 145 146 140 135 131 127 125 124 123 121 118 117 112 107 107 104 104 105 105 103 101 100 97 99 104 110 108 115 115 99 85 83 68 59 51 48 43 33 32 37 42 41 42 47 47 45
352 87 311 71 94 30 75 181 233 246 286 280 277 261 265 278 232 223 259 203 318 240 169 156 177 116 201 52 41 9 58 85 97 112 122 129 134 134 138 146 134 133 133 135 136 134 133 141 142 146 147 147 143 138 135 130 128 128 127 125 122 119 117 114 112 108 108 110 111 112 111 107 107 103 101 98 103 98 99 97 128 104 76 75 61 49 49 44 32 27 29 33 35 36 41 41 38
13 56 293 142 124 212 5 298 154 235 227 245 256 286 294 307 309 294 273 301 205 114 144 88 107 115 115 86 100 16 96 110 114 112 122 124 126 128 139 150 142 137 138 135 134 136 146 144 147 150 148 144 141 136 133 131 129 127 125 121 119 119 119 119 118 115 114 114 114 113 111 108 104 103 101 102 110 114 110 112 106 98 87 63 61 50 44 34 27 23 23 23 25 23 23 24 22
1 8 157 94 40 180 191 256 264 298 258 306 296 265 275 292 299 308 303 280 128 153 139 110 63 110 92 69 51 67 111 123 122 123 124 124 125 131 133 148 147 140 137 138 141 145 143 144 146 146 143 138 136 131 129 126 124 119 116 118 120 124 126 126 124 120 118 120 118 116 112 110 107 103 100 96 96 103 110 114 104 97 76 64 50 43 28 26 21 18 17 15 16 16 10 11 6
57 105 64 137 184 177 225 201 234 254 291 324 283 275 276 282 325 315 310 333 339 130 168 147 162 125 74 93 95 113 112 100 112 120 121 123 123 133 139 145 147 142 136 138 140 138 140 141 143 146 139 134 132 129 125 127 125 124 123 123 126 130 133 130 128 125 125 123 120 117 113 110 110 112 106 97 91 91 94 99 104 88 82 54 36 17 9 10 13 10 8 9 10 7 2 1 1
143 129 85 108 220 172 203 185 249 237 330 276 245 275 83 328 290 277 293 337 222 163 161 285 141 89 106 100 118 121 105 115 118 120 124 127 131 136 136 137 139 133 133 130 129 132 132 132 137 133 134 135 129 128 131 128 128 128 128 129 134 138 139 137 132 132 130 125 124 123 118 116 120 115 116 107 99 96 96 92 101 99 61 72 8 350 347 350 356 359 0 0 1 359 357 357 358
137 183 135 219 63 156 150 205 287 237 270 249 257 269 304 264 253 247 343 323 256 115 277 127 107 101 94 112 129 132 126 135 124 121 118 121 124 128 129 125 127 125 121 121 123 123 119 119 121 125 129 127 133 133 134 134 134 135 134 136 140 144 146 144 140 138 132 133 135 133 126 126 131 136 122 119 99 85 89 91 87 82 92 42 2 341 339 339 342 349 350 354 352 351 349 351 353
193 165 91 129 185 132 236 161 202 205 250 252 258 284 318 251 278 308 303 204 308 130 102 81 154 81 187 149 152 159 151 145 129 126 113 107 107 108 110 111 113 114 119 123 124 124 121 118 117 116 124 126 129 132 137 141 142 142 140 143 147 152 150 148 144 140 139 144 148 143 144 141 154 146 139 116 121 133 98 80 79 57 57 15 351 340 336 337 343 343 347 351 348 346 346 346 345
175 100 89 163 216 179 262 192 187 183 257 228 257 323 316 285 294 295 319 163 114 93 52 166 50 126 149 142 147 147 144 136 127 111 102 97 88 83 96 111 121 124 127 122 119 118 120 123 122 128 129 132 137 140 142 145 150 147 147 147 152 154 151 143 143 144 145 152 155 153 155 158 142 153 173 129 142 110 102 97 72 72 50 24 349 341 341 335 341 346 346 347 344 344 344 339 338
88 83 196 103 230 160 245 176 163 227 237 256 272 302 277 285 11 64 23 88 95 43 61 29 103 107 125 144 137 137 132 124 114 108 103 106 117 120 122 136 131 117 121 128 130 130 124 129 136 132 136 136 141 142 145 145 155 152 151 151 154 154 146 143 145 152 157 164 156 162 154 84 57 20 354 306 288 107 180 145 111 104 61 35 13 357 345 345 342 341 340 338 335 337 336 334 334
96 181 140 215 182 179 202 194 189 205 206 252 259 255 271 286 12 142 68 59 85 80 76 73 70 82 117 122 127 127 128 124 128 123 127 132 152 145 153 147 145 147 144 139 145 142 139 145 147 145 143 146 148 148 153 146 147 147 131 148 144 150 147 145 142 153 171 177 174 166 126 156 135 279 303 292 327 282 2 215 136 106 123 77 41 4 342 339 338 336 332 328 327 328 327 335 330
181 165 169 213 177 223 180 200 204 161 248 242 246 318 186 257 355 250 103 130 93 92 84 92 93 101 107 118 122 127 132 135 139 137 146 151 160 157 152 148 165 175 174 165 162 159 153 148 153 152 152 155 154 158 155 144 122 117 137 131 134 151 156 136 115 156 62 159 330 162 186 188 161 210 236 254 250 252 255 263 244 267 320 22 13 345 337 327 326 321 319 318 318 317 323 315 310
225 126 205 211 206 212 212 189 220 210 227 254 271 252 159 276 57 270 147 141 99 123 125 109 122 130 129 130 134 138 141 144 147 150 153 156 161 161 163 167 178 196 190 175 162 161 160 160 156 155 156 158 160 158 150 128 119 134 143 123 117 107 98 110 140 88 167 201 230 244 257 243 233 235 250 260 293 264 322 332 321 332 339 336 334 2 335 320 317 319 310 308 313 310 305 301 306
226 201 203 200 202 202 231 215 220 226 211 244 251 323 322 337 50 75 144 114 128 177 160 143 147 145 141 142 142 146 148 151 155 155 155 164 174 180 171 172 179 184 185 174 164 166 168 160 155 156 156 157 157 157 156 140 135 139 151 127 118 105 139 109 155 187 206 219 236 233 237 255 271 252 248 273 72 111 64 332 331 322 306 311 329 342 340 328 336 315 312 307 295 294 300 294 298
140 225 183 187 181 213 229 215 223 221 217 226 280 301 258 112 48 28 162 149 199 186 188 158 146 146 146 150 153 151 158 158 161 165 173 177 181 180 168 159 168 170 181 180 177 169 171 167 159 154 154 157 158 159 155 156 153 155 174 143 127 120 164 180 172 201 220 227 235 231 221 224 223 221 251 160 169 141 153 248 281 303 316 302 321 322 326 330 328 327 323 314 308 281 272 278 269
237 250 201 192 187 194 225 214 222 217 238 230 250 243 32 87 95 45 155 189 244 159 151 165 153 156 153 147 149 157 161 165 172 179 180 181 167 145 152 163 173 181 182 180 177 179 174 168 159 153 154 154 159 157 149 153 161 177 165 143 154 189 199 206 214 218 219 221 219 211 180 183 190 173 281 235 268 143 159 220 263 282 292 297 305 312 313 309 302 310 317 310 314 318 305 289 280
248 237 130 211 189 210 237 230 217 218 217 232 226 8 117 129 76 325 61 320 159 128 148 145 137 136 142 148 159 161 168 170 181 186 178 169 169 164 163 172 177 170 171 175 184 180 181 172 161 155 156 158 158 153 154 164 168 177 171 166 170 189 188 222 216 224 243 232 202 190 179 182 175 174 193 286 281 251 176 209 227 251 278 284 293 334 321 318 317 316 323 323 328 326 317 320 310
221 235 225 263 204 222 236 244 238 230 228 243 19 252 294 139 143 105 48 24 113 121 129 137 137 136 145 150 159 164 163 173 186 185 176 156 144 143 159 160 159 160 179 179 184 186 184 172 162 162 161 162 157 155 164 170 170 169 157 161 148 189 181 219 222 225 179 121 158 169 193 196 140 81 98 227 326 294 282 292 74 349 279 281 313 318 278 304 324 333 323 323 334 330 335 327 334
226 226 202 230 243 218 235 248 249 225 259 152 213 81 99 115 105 74 103 89 89 120 131 140 140 145 155 163 164 163 171 183 181 175 174 154 149 150 166 169 165 175 178 175 179 193 183 167 167 169 165 164 160 156 168 162 158 154 160 161 149 173 174 165 137 108 58 86 89 92 106 137 97 77 350 350 337 282 294 325 71 334 342 339 314 304 349 292 305 323 336 344 343 341 352 338 351
192 181 214 234 245 255 260 225 247 250 222 162 207 125 167 200 65 148 119 129 129 131 138 148 149 153 160 164 168 175 175 181 180 162 150 162 165 171 171 169 171 171 161 178 185 196 185 165 172 169 163 161 158 161 154 140 124 125 120 103 93 123 131 117 110 96 72 80 119 64 74 43 46 39 39 337 300 270 312 36 75 66 44 18 333 306 352 347 322 323 329 337 4 14 356 332 354
287 198 204 222 240 252 260 249 248 242 261 186 191 179 160 303 170 170 159 149 151 145 150 153 156 155 163 169 170 178 182 175 173 175 168 174 180 179 176 173 167 167 170 177 187 184 171 177 172 160 157 159 155 140 127 119 114 119 119 113 113 121 122 114 105 109 130 134 96 79 50 43 38 16 6 320 240 280 269 107 66 58 40 14 26 32 25 24 39 22 24 11 19 24 348 9 0
269 221 240 244 232 240 239 241 245 165 251 176 151 81 208 347 175 153 145 144 154 154 152 156 158 159 162 168 166 177 183 180 185 188 189 177 176 185 174 166 163 162 174 181 180 171 170 167 146 151 147 147 142 138 129 121 118 118 124 129 130 121 114 105 103 116 116 84 69 51 52 39 38 20 355 359 353 288 310 63 58 57 50 39 35 30 32 33 32 24 16 5 22 20 23 9 360
258 177 186 266 258 250 237 223 237 183 231 151 135 221 251 266 151 147 142 151 150 151 158 163 159 157 158 162 169 167 174 187 198 201 181 190 188 183 170 162 162 162 172 173 145 147 129 124 119 121 135 139 138 129 125 123 122 120 114 118 119 113 101 94 99 90 87 61 64 54 47 42 35 359 12 350 23 315 11 48 54 51 47 52 50 40 44 31 37 35 13 18 18 27 22 11 13
187 202 132 198 205 240 225 193 210 209 194 162 172 212 243 166 159 144 154 161 162 162 164 166 163 158 156 161 168 175 184 201 201 195 188 205 199 178 167 160 162 161 152 146 144 132 120 118 126 126 139 134 131 132 129 124 123 120 119 111 98 95 89 90 83 82 77 65 61 53 47 30 17 349 3 354 11 353 62 57 53 55 56 54 54 41 52 39 42 42 22 22 16 27 18 21 14
246 137 220 226 207 240 270 215 191 208 228 167 165 222 184 181 169 150 160 164 168 158 158 164 165 164 163 165 169 173 185 186 201 208 192 213 206 180 169 167 158 153 151 133 115 112 106 99 111 124 129 129 130 129 124 121 120 115 109 108 93 85 90 83 80 79 84 75 69 58 38 35 359 304 300 319 70 69 75 73 61 59 59 61 54 44 43 36 26 45 32 35 32 21 15 10 11
302 193 217 214 207 216 293 240 201 205 197 158 183 191 120 184 178 166 166 167 173 165 165 166 169 166 169 168 173 173 173 193 185 179 199 215 228 240 172 139 134 130 122 123 121 111 105 104 122 126 131 128 119 111 111 110 107 101 91 85 84 80 79 79 73 77 79 85 75 67 37 37 35 70 75 60 91 80 83 78 57 60 62 66 58 47 46 32 34 39 38 33 51 42 25 8 4
254 209 211 212 200 172 218 299 229 194 184 198 28 121 190 176 171 168 171 175 169 172 172 172 174 175 174 172 173 179 187 183 184 174 182 195 214 85 79 96 95 98 106 114 118 122 117 113 106 111 113 108 115 121 118 108 94 87 81 81 77 79 73 69 67 72 73 73 70 64 55 57 57 65 81 94 81 77 73 73 60 54 67 71 67 56 45 33 42 46 48 32 40 43 30 14 354
199 192 196 241 166 179 205 191 248 151 198 187 113 112 170 161 159 168 172 175 173 181 181 177 176 174 172 174 180 182 187 188 178 149 140 124 103 82 86 93 96 92 99 107 109 111 113 111 107 107 111 113 111 114 109 99 96 86 80 79 77 73 72 67 65 65 60 62 64 64 62 62 66 60 62 70 81 69 68 65 66 56 66 73 69 56 38 28 33 33 52 43 49 59 46 16 347
201 169 170 128 134 183 193 220 250 161 188 171 165 163 153 161 166 168 168 177 181 186 190 181 177 178 172 178 180 185 188 177 150 144 134 125 117 111 107 104 100 107 111 114 116 118 117 114 108 105 107 119 117 112 116 108 97 97 101 93 81 73 69 73 63 69 65 67 60 68 67 65 59 61 51 57 76 71 67 56 64 53 61 74 65 55 39 33 23 25 37 43 45 47 37 11 2
111 123 137 170 167 221 231 226 217 176 146 196 187 144 155 168 170 176 174 169 176 190 197 193 188 184 184 181 182 181 179 165 155 146 139 127 126 119 117 115 116 117 119 127 130 131 130 131 130 129 134 135 139 134 126 127 120 109 93 101 102 92 88 80 72 62 68 68 69 69 74 70 62 55 45 44 58 71 68 64 66 57 59 65 68 63 52 44 32 38 60 51 49 48 27 9 1
98 84 130 193 170 203 215 204 223 195 157 282 132 150 165 171 174 171 161 164 193 194 191 196 191 189 185 181 177 172 161 138 152 142 135 126 126 128 130 131 135 132 143 140 143 140 135 136 135 136 133 133 133 126 125 111 116 130 126 116 110 100 94 89 86 65 66 66 57 52 53 56 57 55 49 51 56 55 61 57 53 56 63 72 75 68 56 45 34 32 22 61 43 61 49 12 0
237 148 176 114 249 206 267 237 220 196 89 222 148 144 167 172 171 173 176 192 199 195 199 193 182 182 181 184 169 167 163 165 165 142 134 134 133 144 145 148 151 147 146 144 143 137 137 137 134 135 137 132 109 81 62 118 122 115 118 120 117 103 67 86 88 79 69 72 55 46 44 44 51 49 43 49 54 47 54 59 54 57 56 67 70 56 49 44 35 36 34 57 41 43 57 26 19
240 192 132 200 234 149 214 232 35 12 138 157 161 139 161 131 143 180 199 196 208 199 201 203 199 186 183 183 177 172 170 168 166 156 150 137 142 153 156 158 152 145 145 145 153 145 139 137 138 138 136 120 113 128 121 71 91 97 91 101 91 93 114 95 87 78 70 63 53 48 49 48 50 51 45 50 55 52 53 61 63 61 60 59 72 69 53 48 35 34 35 36 61 55 28 26 21
223 194 159 168 217 243 144 201 94 64 47 126 113 109 160 154 159 175 183 184 187 198 198 208 214 215 193 169 179 182 177 173 162 160 147 147 157 167 167 153 145 150 154 157 155 149 146 146 146 143 139 131 136 140 135 137 127 103 97 89 93 90 74 84 87 66 56 66 63 44 41 42 52 53 48 50 59 59 58 65 71 68 67 55 64 69 63 56 51 45 41 48 42 91 57 43 24
221 223 178 184 185 205 317 160 119 41 52 229 136 89 190 165 189 192 161 165 197 195 202 206 201 197 183 188 187 181 184 186 167 160 150 155 162 161 157 151 153 155 158 159 153 145 142 142 138 137 132 135 143 149 147 147 142 135 131 126 120 109 108 102 100 110 83 61 56 53 46 40 51 58 49 52 55 61 62 62 67 70 65 60 63 71 66 57 46 46 36 54 53 37 91 67 39
165 246 164 187 198 190 151 199 114 146 175 215 281 131 233 343 217 189 178 194 203 193 210 209 201 200 193 190 187 186 184 180 172 160 158 168 169 160 154 158 162 158 154 142 140 139 138 138 141 145 145 141 146 150 156 144 140 143 144 142 140 141 131 95 93 87 95 91 78 61 50 41 44 58 53 54 57 61 63 60 68 70 70 70 68 70 64 58 53 49 41 45 45 43 45 71 48
213 212 153 180 171 187 192 195 193 180 64 108 33 102 147 203 222 213 194 183 194 208 217 214 204 199 197 192 188 189 187 184 176 173 177 180 172 166 156 160 163 155 143 144 143 140 141 145 148 148 144 145 148 150 155 155 147 147 133 123 122 125 128 130 125 108 100 96 81 67 60 52 49 46 50 50 56 62 65 63 67 73 75 66 68 61 63 53 53 44 45 46 50 51 54 69 66
218 180 152 164 175 189 160 130 89 141 112 184 241 179 65 225 207 133 186 180 200 214 215 212 205 197 196 194 191 190 186 185 178 176 184 182 175 167 162 161 155 146 149 150 145 140 138 141 139 134 138 141 143 153 152 157 149 145 136 130 119 117 123 122 120 112 99 87 85 74 72 65 62 55 44 50 48 52 56 67 66 72 71 66 63 62 56 55 58 61 57 55 58 55 57 65 69
243 138 118 133 149 191 174 147 87 88 98 207 212 195 165 251 206 171 173 204 202 214 213 206 199 196 191 192 191 187 183 187 178 175 180 176 170 165 159 152 152 153 145 136 130 131 133 131 133 132 135 140 146 150 148 139 132 127 129 131 129 131 124 114 111 110 102 95 94 85 76 64 52 60 51 49 50 47 57 60 68 71 73 69 64 68 67 66 64 67 67 73 71 70 59 64 71
175 96 126 66 53 121 175 90 108 63 213 227 206 200 172 207 200 192 159 205 207 210 203 200 200 200 196 193 190 186 184 184 176 171 183 171 162 158 150 159 155 149 140 133 132 134 134 134 132 126 132 134 142 143 140 136 131 133 132 137 136 134 133 129 123 112 112 104 102 91 80 74 52 53 48 47 49 50 60 64 70 70 67 67 66 65 67 74 73 74 73 71 68 72 71 72 71
142 139 159 126 322 19 55 1 78 169 246 231 190 190 183 207 234 204 216 219 208 189 192 196 194 197 196 190 188 188 184 180 175 171 178 166 156 154 155 159 158 152 137 136 139 135 134 132 128 120 122 132 135 135 131 134 138 137 139 143 142 144 142 140 135 130 126 121 119 110 102 91 79 65 57 58 46 53 67 66 68 68 66 67 67 74 74 76 76 74 69 72 71 70 73 74 73
175 112 110 146 231 152 275 64 140 207 218 237 179 167 41 241 217 194 206 225 214 205 203 195 192 193 191 188 185 182 181 177 177 177 174 170 165 162 161 164 155 152 145 144 144 138 133 132 131 125 125 129 130 131 129 131 135 140 143 140 135 131 126 123 122 122 133 131 132 126 125 117 104 78 59 67 50 58 69 68 65 67 68 69 79 77 76 76 78 78 78 75 75 73 75 79 78
174 168 151 147 156 160 195 227 202 304 285 256 168 172 207 252 271 221 214 214 211 208 208 199 194 188 183 179 178 178 180 180 177 174 171 171 168 167 167 163 156 149 146 144 145 140 137 133 130 122 123 121 122 120 125 123 125 130 132 130 126 124 121 123 127 131 135 129 133 135 135 124 105 98 85 73 70 73 64 69 74 71 70 74 78 80 79 81 82 84 82 82 81 82 80 80 81
191 136 165 172 153 163 191 181 199 211 213 249 168 120 235 149 237 229 214 208 214 216 97 129 161 156 154 164 172 174 176 182 179 172 170 171 169 164 164 161 153 150 146 143 149 143 135 132 130 124 121 118 118 120 119 119 120 118 118 120 122 122 121 121 127 132 135 135 137 130 123 114 108 98 89 83 72 74 74 71 71 69 65 69 74 78 80 79 83 84 85 88 83 83 82 81 78
194 134 95 124 212 137 180 196 153 220 214 52 150 184 191 189 243 278 250 200 182 148 142 134 152 160 163 170 179 180 179 181 179 172 166 168 167 162 159 157 152 150 148 145 151 146 136 134 130 129 130 128 121 118 115 118 118 117 120 123 124 121 122 120 118 121 124 130 134 126 115 107 104 99 87 84 66 81 79 76 68 66 67 68 71 80 83 85 86 87 86 84 84 81 86 82 82
186 134 193 204 147 102 67 28 205 118 58 235 167 326 285 307 329 343 148 154 162 132 141 151 158 166 173 183 183 179 180 181 179 175 166 164 163 165 158 155 152 148 151 154 158 150 138 134 130 119 116 114 115 115 116 117 120 121 125 125 124 123 128 131 131 130 127 121 118 115 110 109 102 97 96 89 87 77 79 79 75 67 64 67 68 69 81 86 83 86 91 91 88 83 84 85 85
128 188 209 73 86 107 143 221 349 92 165 242 107 179 244 117 244 340 132 154 164 160 158 162 165 165 179 187 183 180 179 181 180 174 161 162 162 161 155 154 155 152 153 151 148 142 137 135 134 123 122 124 121 120 120 125 125 123 126 124 123 128 129 128 128 129 128 122 115 106 106 101 101 104 99 95 89 81 73 74 77 71 67 64 67 66 73 79 85 85 90 91 98 94 88 84 84
163 204 140 142 183 219 299 97 233 144 220 246 320 274 243 192 206 144 182 173 174 170 160 156 171 178 188 183 180 175 172 172 174 173 161 165 165 162 155 154 153 148 146 144 137 134 126 125 129 133 132 131 132 125 120 117 122 125 126 126 126 123 124 124 125 128 129 125 117 110 105 111 105 100 98 94 88 83 81 72 75 74 67 66 63 63 69 73 87 97 96 98 97 97 96 91 91
224 82 154 170 115 150 171 199 178 133 236 88 267 41 225 216 219 190 183 187 180 168 170 182 183 188 184 179 178 175 174 174 174 172 168 166 166 160 152 153 154 150 147 147 144 137 131 131 126 120 115 122 122 124 127 124 125 119 115 112 115 124 129 130 132 132 128 122 119 115 115 106 109 101 95 93 88 88 85 83 74 77 73 67 67 60 67 80 88 98 106 102 102 102 97 98 89
200 188 189 177 190 214 158 139 145 205 176 178 164 220 274 258 205 188 196 183 181 175 184 186 189 189 184 181 178 175 172 170 172 171 167 165 161 158 152 150 145 141 142 147 150 142 135 133 129 131 135 135 131 135 130 131 125 120 120 123 126 127 127 126 125 126 120 117 113 109 108 114 102 95 102 91 90 87 85 88 82 76 76 72 73 67 62 83 90 98 102 108 109 104 105 103 96
182 186 200 175 163 159 168 239 40 105 147 210 131 232 273 263 179 196 195 189 179 189 182 183 190 184 180 178 177 173 171 167 167 167 165 161 154 150 151 144 139 141 150 154 153 140 140 142 141 138 132 139 140 142 137 131 122 118 120 124 123 125 126 124 120 119 114 113 112 111 115 104 95 90 95 97 91 87 87 91 88 82 79 77 75 74 71 82 95 101 103 115 113 110 106 104 98